Location: Campillo
(40.8621°N, 4.2488°W)
Time: 17:56:57
(UTC+00:00)

Cosmos 158 Rocket - Pass Details

Date: 26 September 2021
Orbit: 699 x 792 km, 74.0° (Epoch: 24 October)

Event Time Altitude Azimuth Distance (km) Brightness Sun altitude
Rises 20:34:32 0° 333° (NNW) 3,148 7.9 -28.0°
Reaches altitude 10° 20:37:01 10° 326° (NW) 2,209 7.1 -28.4°
Maximum altitude 20:41:38 40° 258° (WSW) 1,045 5.0 -29.2°
Enters shadow 20:42:22 37° 235° (SW) 1,088 4.9 -29.3°
